Time,TemperatureF,DewpointF,PressureIn,WindDirection,WindDirectionDegrees,WindSpeedMPH,WindSpeedGustMPH,Humidity,HourlyPrecipIn,Conditions,Clouds,dailyrainin,SoftwareType,DateUTC
2013-07-24 00:01:00,68.7,68.7,29.93,ENE,69,0.0,0.0,100,0.00,,,0.00,Wunderground v.1.15,2013-07-24 04:01:00,
2013-07-24 00:06:00,68.7,68.7,29.92,ENE,69,0.0,0.0,100,0.00,,,0.00,Wunderground v.1.15,2013-07-24 04:06:00,
2013-07-24 00:11:00,68.6,68.6,29.92,ENE,69,0.0,0.0,100,0.00,,,0.00,Wunderground v.1.15,2013-07-24 04:11:00,
2013-07-24 00:16:00,68.5,68.5,29.92,ENE,69,0.0,0.0,100,0.00,,,0.00,Wunderground v.1.15,2013-07-24 04:16:00,
2013-07-24 00:21:00,68.4,68.4,29.93,ENE,69,0.0,0.0,100,0.00,,,0.00,Wunderground v.1.15,2013-07-24 04:21:00,
2013-07-24 00:26:00,68.3,68.3,29.93,ENE,69,0.0,0.0,100,0.00,,,0.00,Wunderground v.1.15,2013-07-24 04:26:00,
2013-07-24 00:31:00,68.3,68.3,29.93,ENE,69,0.0,0.0,100,0.00,,,0.00,Wunderground v.1.15,2013-07-24 04:31:00,
2013-07-24 00:36:00,68.2,68.2,29.93,ENE,69,0.0,0.0,100,0.00,,,0.00,Wunderground v.1.15,2013-07-24 04:36:00,
2013-07-24 00:41:00,68.1,68.1,29.93,ENE,69,0.0,0.0,100,0.00,,,0.00,Wunderground v.1.15,2013-07-24 04:41:00,
2013-07-24 00:46:00,68.1,68.1,29.93,ENE,63,0.0,1.0,100,0.00,,,0.00,Wunderground v.1.15,2013-07-24 04:46:00,
2013-07-24 00:51:00,67.9,67.9,29.93,ENE,63,0.0,0.0,100,0.00,,,0.00,Wunderground v.1.15,2013-07-24 04:51:00,
2013-07-24 00:56:00,67.8,67.8,29.92,ENE,63,0.0,0.0,100,0.00,,,0.00,Wunderground v.1.15,2013-07-24 04:56:00,
2013-07-24 01:01:00,67.8,67.8,29.93,ENE,63,0.0,0.0,100,0.00,,,0.00,Wunderground v.1.15,2013-07-24 05:01:00,
2013-07-24 01:06:00,67.6,67.6,29.93,ENE,63,0.0,0.0,100,0.00,,,0.00,Wunderground v.1.15,2013-07-24 05:06:00,
2013-07-24 01:11:00,67.6,67.6,29.93,ENE,63,0.0,0.0,100,0.00,,,0.00,Wunderground v.1.15,2013-07-24 05:11:00,
2013-07-24 01:16:00,67.5,67.5,29.93,ENE,63,0.0,1.0,100,0.00,,,0.00,Wunderground v.1.15,2013-07-24 05:16:00,
2013-07-24 01:21:00,67.5,67.5,29.92,ENE,63,0.0,0.0,100,0.00,,,0.00,Wunderground v.1.15,2013-07-24 05:21:00,
2013-07-24 01:26:00,67.4,67.4,29.92,ENE,63,0.0,0.0,100,0.00,,,0.00,Wunderground v.1.15,2013-07-24 05:26:00,
2013-07-24 01:31:00,67.4,67.4,29.92,ENE,63,0.0,0.0,100,0.00,,,0.00,Wunderground v.1.15,2013-07-24 05:31:00,
2013-07-24 01:36:00,67.4,67.4,29.92,ENE,63,0.0,0.0,100,0.00,,,0.00,Wunderground v.1.15,2013-07-24 05:36:00,
2013-07-24 01:41:00,67.3,67.3,29.92,ENE,63,0.0,0.0,100,0.00,,,0.00,Wunderground v.1.15,2013-07-24 05:41:00,
2013-07-24 01:46:00,67.2,67.2,29.92,ENE,63,0.0,0.0,100,0.00,,,0.00,Wunderground v.1.15,2013-07-24 05:46:00,
2013-07-24 01:51:00,67.1,67.1,29.92,ENE,63,0.0,0.0,100,0.00,,,0.00,Wunderground v.1.15,2013-07-24 05:51:00,
2013-07-24 01:56:00,67.0,67.0,29.92,ENE,63,0.0,0.0,100,0.00,,,0.00,Wunderground v.1.15,2013-07-24 05:56:00,
2013-07-24 02:01:00,67.0,67.0,29.92,ENE,63,0.0,0.0,100,0.00,,,0.00,Wunderground v.1.15,2013-07-24 06:01:00,
2013-07-24 02:06:00,66.9,66.9,29.91,ENE,63,0.0,0.0,100,0.00,,,0.00,Wunderground v.1.15,2013-07-24 06:06:00,
2013-07-24 02:11:00,66.8,66.8,29.91,ENE,63,0.0,0.0,100,0.00,,,0.00,Wunderground v.1.15,2013-07-24 06:11:00,
2013-07-24 02:16:00,66.7,66.7,29.91,ENE,63,0.0,0.0,100,0.00,,,0.00,Wunderground v.1.15,2013-07-24 06:16:00,
2013-07-24 02:21:00,66.6,66.6,29.91,ENE,63,0.0,0.0,100,0.00,,,0.00,Wunderground v.1.15,2013-07-24 06:21:00,
2013-07-24 02:27:00,66.5,66.5,29.90,ENE,63,0.0,0.0,100,0.00,,,0.00,Wunderground v.1.15,2013-07-24 06:27:00,
2013-07-24 02:32:00,66.4,66.4,29.90,ENE,63,0.0,0.0,100,0.00,,,0.00,Wunderground v.1.15,2013-07-24 06:32:00,
2013-07-24 02:37:00,66.4,66.4,29.91,ENE,63,0.0,0.0,100,0.00,,,0.00,Wunderground v.1.15,2013-07-24 06:37:00,
2013-07-24 02:42:00,66.4,66.4,29.91,ENE,63,0.0,0.0,100,0.00,,,0.00,Wunderground v.1.15,2013-07-24 06:42:00,
2013-07-24 02:47:00,66.4,66.4,29.91,ENE,63,0.0,0.0,100,0.00,,,0.00,Wunderground v.1.15,2013-07-24 06:47:00,
2013-07-24 02:52:00,66.4,66.4,29.90,ENE,63,0.0,0.0,100,0.00,,,0.00,Wunderground v.1.15,2013-07-24 06:52:00,
2013-07-24 02:57:00,66.4,66.4,29.90,ENE,63,0.0,0.0,100,0.00,,,0.00,Wunderground v.1.15,2013-07-24 06:57:00,
2013-07-24 03:02:00,66.4,66.4,29.90,ENE,63,0.0,0.0,100,0.00,,,0.00,Wunderground v.1.15,2013-07-24 07:02:00,
2013-07-24 03:07:00,66.3,66.3,29.90,ENE,63,0.0,0.0,100,0.00,,,0.00,Wunderground v.1.15,2013-07-24 07:07:00,
2013-07-24 03:12:00,66.3,66.3,29.89,ENE,63,0.0,0.0,100,0.00,,,0.00,Wunderground v.1.15,2013-07-24 07:12:00,
2013-07-24 03:17:00,66.2,66.2,29.89,ENE,63,0.0,0.0,100,0.00,,,0.00,Wunderground v.1.15,2013-07-24 07:17:00,
2013-07-24 03:22:00,66.2,66.2,29.89,ENE,63,0.0,0.0,100,0.00,,,0.00,Wunderground v.1.15,2013-07-24 07:22:00,
2013-07-24 03:27:00,66.1,66.1,29.89,ENE,63,0.0,0.0,100,0.00,,,0.00,Wunderground v.1.15,2013-07-24 07:27:00,
2013-07-24 03:32:00,66.1,66.1,29.89,ENE,63,0.0,0.0,100,0.00,,,0.00,Wunderground v.1.15,2013-07-24 07:32:00,
2013-07-24 03:37:00,66.0,66.0,29.89,ENE,63,0.0,0.0,100,0.00,,,0.00,Wunderground v.1.15,2013-07-24 07:37:00,
2013-07-24 03:42:00,66.0,66.0,29.89,ENE,63,0.0,0.0,100,0.00,,,0.00,Wunderground v.1.15,2013-07-24 07:42:00,
2013-07-24 03:47:00,66.0,66.0,29.88,ENE,63,0.0,0.0,100,0.00,,,0.00,Wunderground v.1.15,2013-07-24 07:47:00,
2013-07-24 03:52:00,65.9,65.9,29.89,ENE,63,0.0,0.0,100,0.00,,,0.00,Wunderground v.1.15,2013-07-24 07:52:00,
2013-07-24 03:57:00,65.9,65.9,29.89,ENE,63,0.0,0.0,100,0.00,,,0.00,Wunderground v.1.15,2013-07-24 07:57:00,
2013-07-24 04:02:00,65.9,65.9,29.89,ENE,63,0.0,0.0,100,0.00,,,0.00,Wunderground v.1.15,2013-07-24 08:02:00,
2013-07-24 04:07:00,65.9,65.9,29.88,ENE,63,0.0,0.0,100,0.00,,,0.00,Wunderground v.1.15,2013-07-24 08:07:00,
2013-07-24 04:12:00,65.9,65.9,29.88,ENE,63,0.0,0.0,100,0.00,,,0.00,Wunderground v.1.15,2013-07-24 08:12:00,
2013-07-24 04:17:00,65.9,65.9,29.88,ENE,62,0.0,1.0,100,0.00,,,0.00,Wunderground v.1.15,2013-07-24 08:17:00,
2013-07-24 04:22:00,65.9,65.9,29.88,ENE,62,0.0,1.0,100,0.00,,,0.00,Wunderground v.1.15,2013-07-24 08:22:00,
2013-07-24 04:27:00,65.9,65.9,29.88,ENE,62,0.0,1.0,100,0.00,,,0.00,Wunderground v.1.15,2013-07-24 08:27:00,
2013-07-24 04:32:00,65.9,65.9,29.88,NE,49,0.0,1.0,100,0.00,,,0.00,Wunderground v.1.15,2013-07-24 08:32:00,
2013-07-24 04:37:00,65.9,65.9,29.88,NE,49,0.0,1.0,100,0.00,,,0.00,Wunderground v.1.15,2013-07-24 08:37:00,
2013-07-24 04:42:00,65.9,65.9,29.88,NE,34,0.0,1.0,100,0.00,,,0.00,Wunderground v.1.15,2013-07-24 08:42:00,
2013-07-24 04:47:00,65.9,65.9,29.88,NE,34,0.0,1.0,100,0.00,,,0.00,Wunderground v.1.15,2013-07-24 08:47:00,
2013-07-24 04:52:00,65.9,65.9,29.87,NE,34,0.0,0.0,100,0.00,,,0.00,Wunderground v.1.15,2013-07-24 08:52:00,
2013-07-24 04:57:00,65.8,65.8,29.87,NE,34,0.0,1.0,100,0.00,,,0.00,Wunderground v.1.15,2013-07-24 08:57:00,
2013-07-24 05:02:00,65.9,65.9,29.87,NE,34,0.0,0.0,100,0.00,,,0.00,Wunderground v.1.15,2013-07-24 09:02:00,
2013-07-24 05:07:00,65.9,65.9,29.87,NE,34,0.0,0.0,100,0.00,,,0.00,Wunderground v.1.15,2013-07-24 09:07:00,
2013-07-24 05:12:00,65.8,65.8,29.87,NE,34,0.0,0.0,100,0.00,,,0.00,Wunderground v.1.15,2013-07-24 09:12:00,
2013-07-24 05:17:00,65.9,65.9,29.88,NE,34,0.0,0.0,100,0.00,,,0.00,Wunderground v.1.15,2013-07-24 09:17:00,
2013-07-24 05:22:00,65.9,65.9,29.87,NE,34,0.0,0.0,100,0.00,,,0.00,Wunderground v.1.15,2013-07-24 09:22:00,
2013-07-24 05:28:00,65.9,65.9,29.88,NE,34,0.0,0.0,100,0.00,,,0.00,Wunderground v.1.15,2013-07-24 09:28:00,
2013-07-24 05:33:00,65.9,65.9,29.88,NE,34,0.0,0.0,100,0.00,,,0.00,Wunderground v.1.15,2013-07-24 09:33:00,
2013-07-24 05:38:00,65.8,65.8,29.88,NE,34,0.0,0.0,100,0.00,,,0.00,Wunderground v.1.15,2013-07-24 09:38:00,
2013-07-24 05:43:00,65.8,65.8,29.88,NE,34,0.0,0.0,100,0.00,,,0.00,Wunderground v.1.15,2013-07-24 09:43:00,
2013-07-24 05:48:00,65.7,65.7,29.89,NE,34,0.0,0.0,100,0.00,,,0.00,Wunderground v.1.15,2013-07-24 09:48:00,
2013-07-24 05:53:00,65.7,65.7,29.89,NE,34,0.0,0.0,100,0.00,,,0.00,Wunderground v.1.15,2013-07-24 09:53:00,
2013-07-24 05:58:00,65.6,65.6,29.90,NE,34,0.0,0.0,100,0.00,,,0.00,Wunderground v.1.15,2013-07-24 09:58:00,
2013-07-24 06:03:00,65.6,65.6,29.90,NE,34,0.0,0.0,100,0.00,,,0.00,Wunderground v.1.15,2013-07-24 10:03:00,
2013-07-24 06:08:00,65.5,65.5,29.90,NE,34,0.0,0.0,100,0.00,,,0.00,Wunderground v.1.15,2013-07-24 10:08:00,
2013-07-24 06:13:00,65.5,65.5,29.90,NE,34,0.0,0.0,100,0.00,,,0.00,Wunderground v.1.15,2013-07-24 10:13:00,
2013-07-24 06:18:00,65.5,65.5,29.90,NE,34,0.0,0.0,100,0.00,,,0.00,Wunderground v.1.15,2013-07-24 10:18:00,
2013-07-24 06:23:00,65.6,65.6,29.90,NE,34,0.0,0.0,100,0.00,,,0.00,Wunderground v.1.15,2013-07-24 10:23:00,
2013-07-24 06:28:00,65.8,65.8,29.90,NE,34,0.0,0.0,100,0.00,,,0.00,Wunderground v.1.15,2013-07-24 10:28:00,
2013-07-24 06:33:00,65.9,65.9,29.90,NE,34,0.0,0.0,100,0.00,,,0.00,Wunderground v.1.15,2013-07-24 10:33:00,
2013-07-24 06:38:00,65.9,65.9,29.90,NE,34,0.0,0.0,100,0.00,,,0.00,Wunderground v.1.15,2013-07-24 10:38:00,
2013-07-24 06:43:00,66.0,66.0,29.91,NE,34,0.0,0.0,100,0.00,,,0.00,Wunderground v.1.15,2013-07-24 10:43:00,
2013-07-24 06:48:00,66.1,66.1,29.91,NE,34,0.0,0.0,100,0.00,,,0.00,Wunderground v.1.15,2013-07-24 10:48:00,
2013-07-24 06:53:00,66.1,66.1,29.91,NE,34,0.0,0.0,100,0.00,,,0.00,Wunderground v.1.15,2013-07-24 10:53:00,
2013-07-24 06:58:00,66.2,66.2,29.91,NE,34,0.0,0.0,100,0.00,,,0.00,Wunderground v.1.15,2013-07-24 10:58:00,
2013-07-24 07:03:00,66.3,66.3,29.91,NE,34,0.0,1.0,100,0.00,,,0.00,Wunderground v.1.15,2013-07-24 11:03:00,
2013-07-24 07:08:00,66.4,66.4,29.91,NE,34,0.0,1.0,100,0.00,,,0.00,Wunderground v.1.15,2013-07-24 11:08:00,
2013-07-24 07:13:00,66.5,66.5,29.92,NE,34,0.0,0.0,100,0.00,,,0.00,Wunderground v.1.15,2013-07-24 11:13:00,
2013-07-24 07:18:00,66.6,66.6,29.92,NE,34,0.0,0.0,100,0.00,,,0.00,Wunderground v.1.15,2013-07-24 11:18:00,
2013-07-24 07:23:00,66.6,66.6,29.92,NE,34,0.0,0.0,100,0.00,,,0.00,Wunderground v.1.15,2013-07-24 11:23:00,
2013-07-24 07:28:00,66.7,66.7,29.92,NE,34,0.0,0.0,100,0.00,,,0.00,Wunderground v.1.15,2013-07-24 11:28:00,
2013-07-24 07:33:00,66.8,66.8,29.92,NE,34,0.0,0.0,100,0.00,,,0.00,Wunderground v.1.15,2013-07-24 11:33:00,
2013-07-24 07:38:00,67.0,67.0,29.92,NE,34,0.0,0.0,100,0.00,,,0.00,Wunderground v.1.15,2013-07-24 11:38:00,
2013-07-24 07:43:00,67.0,67.0,29.92,NE,34,0.0,0.0,100,0.00,,,0.00,Wunderground v.1.15,2013-07-24 11:43:00,
2013-07-24 07:48:00,67.2,67.2,29.92,NE,34,0.0,0.0,100,0.00,,,0.00,Wunderground v.1.15,2013-07-24 11:48:00,
2013-07-24 07:53:00,67.3,67.3,29.92,NE,34,0.0,0.0,100,0.00,,,0.00,Wunderground v.1.15,2013-07-24 11:53:00,
2013-07-24 07:58:00,67.5,67.5,29.92,NE,34,0.0,0.0,100,0.00,,,0.00,Wunderground v.1.15,2013-07-24 11:58:00,
2013-07-24 08:03:00,67.6,67.6,29.93,NE,34,0.0,0.0,100,0.00,,,0.00,Wunderground v.1.15,2013-07-24 12:03:00,
2013-07-24 08:08:00,67.8,67.8,29.93,NE,34,0.0,0.0,100,0.00,,,0.00,Wunderground v.1.15,2013-07-24 12:08:00,
2013-07-24 08:13:00,67.9,67.9,29.93,NE,34,0.0,0.0,100,0.00,,,0.00,Wunderground v.1.15,2013-07-24 12:13:00,
2013-07-24 08:18:00,68.0,68.0,29.93,NE,34,0.0,1.0,100,0.00,,,0.00,Wunderground v.1.15,2013-07-24 12:18:00,
2013-07-24 08:23:00,68.1,68.1,29.93,NE,34,0.0,1.0,100,0.00,,,0.00,Wunderground v.1.15,2013-07-24 12:23:00,
2013-07-24 08:28:00,68.2,68.2,29.93,SE,127,0.0,1.0,100,0.00,,,0.00,Wunderground v.1.15,2013-07-24 12:28:00,
2013-07-24 08:33:00,68.4,68.4,29.93,SE,127,0.0,0.0,100,0.00,,,0.00,Wunderground v.1.15,2013-07-24 12:33:00,
2013-07-24 08:38:00,68.5,68.5,29.93,East,88,0.0,2.0,100,0.00,,,0.00,Wunderground v.1.15,2013-07-24 12:38:00,
2013-07-24 08:43:00,68.7,68.7,29.93,East,88,0.0,1.0,100,0.00,,,0.00,Wunderground v.1.15,2013-07-24 12:43:00,
2013-07-24 08:48:00,68.7,68.7,29.93,East,88,0.0,1.0,100,0.00,,,0.00,Wunderground v.1.15,2013-07-24 12:48:00,
2013-07-24 08:53:00,68.8,68.8,29.93,East,88,0.0,1.0,100,0.00,,,0.00,Wunderground v.1.15,2013-07-24 12:53:00,
2013-07-24 08:58:00,69.0,69.0,29.93,East,88,0.0,1.0,100,0.00,,,0.00,Wunderground v.1.15,2013-07-24 12:58:00,
2013-07-24 09:03:00,69.2,69.2,29.94,East,88,0.0,1.0,100,0.00,,,0.00,Wunderground v.1.15,2013-07-24 13:03:00,
2013-07-24 09:08:00,69.4,69.4,29.93,East,88,0.0,2.0,100,0.00,,,0.00,Wunderground v.1.15,2013-07-24 13:08:00,
2013-07-24 09:13:00,69.5,69.5,29.93,North,5,0.0,1.0,100,0.00,,,0.00,Wunderground v.1.15,2013-07-24 13:13:00,
2013-07-24 09:18:00,69.7,69.7,29.93,North,5,0.0,2.0,100,0.00,,,0.00,Wunderground v.1.15,2013-07-24 13:18:00,
2013-07-24 09:23:00,69.9,69.9,29.93,North,5,0.0,1.0,100,0.00,,,0.00,Wunderground v.1.15,2013-07-24 13:23:00,
2013-07-24 09:28:00,70.2,70.2,29.93,North,5,0.0,2.0,100,0.00,,,0.00,Wunderground v.1.15,2013-07-24 13:28:00,
2013-07-24 09:33:00,70.5,70.5,29.93,North,11,0.0,2.0,100,0.00,,,0.00,Wunderground v.1.15,2013-07-24 13:33:00,
2013-07-24 09:38:00,70.8,70.8,29.93,North,11,0.0,2.0,100,0.00,,,0.00,Wunderground v.1.15,2013-07-24 13:38:00,
2013-07-24 09:43:00,71.1,71.1,29.93,North,11,1.0,1.0,100,0.00,,,0.00,Wunderground v.1.15,2013-07-24 13:43:00,
2013-07-24 09:48:00,71.4,71.4,29.93,NNE,24,0.0,1.0,100,0.00,,,0.00,Wunderground v.1.15,2013-07-24 13:48:00,
2013-07-24 09:53:00,71.7,71.7,29.93,NNE,24,1.0,1.0,100,0.00,,,0.00,Wunderground v.1.15,2013-07-24 13:53:00,
2013-07-24 09:58:00,71.9,71.9,29.93,WSW,256,1.0,2.0,100,0.00,,,0.00,Wunderground v.1.15,2013-07-24 13:58:00,
2013-07-24 10:03:00,72.2,71.9,29.93,WSW,256,0.0,1.0,99,0.00,,,0.00,Wunderground v.1.15,2013-07-24 14:03:00,
2013-07-24 10:08:00,72.4,71.8,29.93,WSW,256,0.0,3.0,98,0.00,,,0.00,Wunderground v.1.15,2013-07-24 14:08:00,
2013-07-24 10:13:00,72.8,71.9,29.93,NW,326,0.0,2.0,97,0.00,,,0.00,Wunderground v.1.15,2013-07-24 14:13:00,
2013-07-24 10:18:00,73.1,72.2,29.93,NNW,327,0.0,2.0,97,0.00,,,0.00,Wunderground v.1.15,2013-07-24 14:18:00,
2013-07-24 10:23:00,73.4,72.2,29.93,NW,326,1.0,2.0,96,0.00,,,0.00,Wunderground v.1.15,2013-07-24 14:23:00,
2013-07-24 10:28:00,73.7,72.5,29.93,NW,326,0.0,2.0,96,0.00,,,0.00,Wunderground v.1.15,2013-07-24 14:28:00,
2013-07-24 10:33:00,74.0,71.5,29.93,NNE,26,0.0,1.0,92,0.00,,,0.00,Wunderground v.1.15,2013-07-24 14:33:00,
2013-07-24 10:38:00,74.5,71.7,29.93,NNE,19,0.0,2.0,91,0.00,,,0.00,Wunderground v.1.15,2013-07-24 14:38:00,
2013-07-24 10:43:00,74.6,71.8,29.92,NNE,19,0.0,1.0,91,0.00,,,0.00,Wunderground v.1.15,2013-07-24 14:43:00,
2013-07-24 10:48:00,74.4,69.9,29.93,West,260,0.0,3.0,86,0.00,,,0.00,Wunderground v.1.15,2013-07-24 14:48:00,
2013-07-24 10:53:00,74.3,69.5,29.93,West,260,1.0,2.0,85,0.00,,,0.00,Wunderground v.1.15,2013-07-24 14:53:00,
2013-07-24 10:58:00,74.5,69.7,29.93,West,260,0.0,2.0,85,0.00,,,0.00,Wunderground v.1.15,2013-07-24 14:58:00,
2013-07-24 11:03:00,74.6,69.4,29.93,West,260,1.0,1.0,84,0.00,,,0.00,Wunderground v.1.15,2013-07-24 15:03:00,
2013-07-24 11:08:00,74.6,69.8,29.93,West,260,0.0,2.0,85,0.00,,,0.00,Wunderground v.1.15,2013-07-24 15:08:00,
2013-07-24 11:13:00,74.6,70.1,29.93,West,260,0.0,1.0,86,0.00,,,0.00,Wunderground v.1.15,2013-07-24 15:13:00,
2013-07-24 11:18:00,74.5,70.0,29.93,West,260,0.0,1.0,86,0.00,,,0.00,Wunderground v.1.15,2013-07-24 15:18:00,
2013-07-24 11:23:00,74.6,70.5,29.93,West,260,0.0,1.0,87,0.00,,,0.00,Wunderground v.1.15,2013-07-24 15:23:00,
2013-07-24 11:28:00,74.7,70.9,29.93,West,260,0.0,1.0,88,0.00,,,0.00,Wunderground v.1.15,2013-07-24 15:28:00,
2013-07-24 11:33:00,74.8,70.0,29.93,West,260,0.0,1.0,85,0.00,,,0.00,Wunderground v.1.15,2013-07-24 15:33:00,
2013-07-24 11:38:00,74.7,69.9,29.93,West,260,0.0,1.0,85,0.00,,,0.00,Wunderground v.1.15,2013-07-24 15:38:00,
2013-07-24 11:43:00,74.8,70.3,29.93,West,260,0.0,1.0,86,0.00,,,0.00,Wunderground v.1.15,2013-07-24 15:43:00,
2013-07-24 11:48:00,75.1,71.0,29.93,West,260,0.0,1.0,87,0.00,,,0.00,Wunderground v.1.15,2013-07-24 15:48:00,
2013-07-24 11:53:00,75.3,71.5,29.93,West,260,0.0,1.0,88,0.00,,,0.00,Wunderground v.1.15,2013-07-24 15:53:00,
2013-07-24 11:58:00,75.5,71.0,29.93,West,260,0.0,1.0,86,0.00,,,0.00,Wunderground v.1.15,2013-07-24 15:58:00,
2013-07-24 12:03:00,75.9,71.1,29.93,West,260,0.0,1.0,85,0.00,,,0.00,Wunderground v.1.15,2013-07-24 16:03:00,
2013-07-24 12:08:00,76.4,71.9,29.93,West,262,0.0,1.0,86,0.00,,,0.00,Wunderground v.1.15,2013-07-24 16:08:00,
2013-07-24 12:13:00,76.9,71.7,29.93,West,262,0.0,2.0,84,0.00,,,0.00,Wunderground v.1.15,2013-07-24 16:13:00,
2013-07-24 12:18:00,77.1,71.5,29.93,West,262,0.0,2.0,83,0.00,,,0.00,Wunderground v.1.15,2013-07-24 16:18:00,
2013-07-24 12:23:00,77.2,71.3,29.93,West,262,0.0,1.0,82,0.00,,,0.00,Wunderground v.1.15,2013-07-24 16:23:00,
2013-07-24 12:28:00,77.5,71.2,29.93,NW,325,0.0,1.0,81,0.00,,,0.00,Wunderground v.1.15,2013-07-24 16:28:00,
2013-07-24 12:33:00,77.7,71.0,29.93,NNW,329,0.0,1.0,80,0.00,,,0.00,Wunderground v.1.15,2013-07-24 16:33:00,
2013-07-24 12:38:00,78.0,71.7,29.93,NNW,329,0.0,1.0,81,0.00,,,0.00,Wunderground v.1.15,2013-07-24 16:38:00,
2013-07-24 12:43:00,78.2,72.3,29.93,NNW,329,0.0,0.0,82,0.00,,,0.00,Wunderground v.1.15,2013-07-24 16:43:00,
2013-07-24 12:48:00,78.3,72.0,29.93,North,350,0.0,1.0,81,0.00,,,0.00,Wunderground v.1.15,2013-07-24 16:48:00,
2013-07-24 12:53:00,78.5,72.5,29.93,North,350,0.0,1.0,82,0.00,,,0.00,Wunderground v.1.15,2013-07-24 16:53:00,
2013-07-24 12:58:00,78.9,72.6,29.92,NNE,12,0.0,2.0,81,0.00,,,0.00,Wunderground v.1.15,2013-07-24 16:58:00,
2013-07-24 13:03:00,79.2,73.2,29.93,NNE,12,0.0,0.0,82,0.00,,,0.00,Wunderground v.1.15,2013-07-24 17:03:00,
2013-07-24 13:08:00,79.4,73.8,29.92,NNE,12,0.0,1.0,83,0.00,,,0.00,Wunderground v.1.15,2013-07-24 17:08:00,
2013-07-24 13:13:00,79.8,73.4,29.92,NNE,12,0.0,2.0,81,0.00,,,0.00,Wunderground v.1.15,2013-07-24 17:13:00,
2013-07-24 13:18:00,80.3,74.3,29.92,North,355,0.0,2.0,82,0.00,,,0.00,Wunderground v.1.15,2013-07-24 17:18:00,
2013-07-24 13:23:00,80.5,73.4,29.92,North,355,1.0,1.0,79,0.00,,,0.00,Wunderground v.1.15,2013-07-24 17:23:00,
2013-07-24 13:28:00,80.7,73.6,29.91,North,355,0.0,2.0,79,0.00,,,0.00,Wunderground v.1.15,2013-07-24 17:28:00,
2013-07-24 13:33:00,81.1,74.3,29.92,North,355,0.0,1.0,80,0.00,,,0.00,Wunderground v.1.15,2013-07-24 17:33:00,
2013-07-24 13:38:00,81.2,74.8,29.91,North,355,1.0,2.0,81,0.00,,,0.00,Wunderground v.1.15,2013-07-24 17:38:00,
2013-07-24 13:43:00,80.8,74.0,29.91,North,355,0.0,2.0,80,0.00,,,0.00,Wunderground v.1.15,2013-07-24 17:43:00,
2013-07-24 13:48:00,80.7,74.3,29.91,North,355,0.0,2.0,81,0.00,,,0.00,Wunderground v.1.15,2013-07-24 17:48:00,
2013-07-24 13:53:00,80.7,74.0,29.91,North,355,0.0,1.0,80,0.00,,,0.00,Wunderground v.1.15,2013-07-24 17:53:00,
2013-07-24 13:58:00,80.9,75.2,29.91,North,355,1.0,1.0,83,0.00,,,0.00,Wunderground v.1.15,2013-07-24 17:58:00,
2013-07-24 14:03:00,81.1,74.3,29.91,North,355,0.0,0.0,80,0.00,,,0.00,Wunderground v.1.15,2013-07-24 18:03:00,
2013-07-24 14:08:00,81.0,74.2,29.91,North,355,0.0,1.0,80,0.00,,,0.00,Wunderground v.1.15,2013-07-24 18:08:00,
2013-07-24 14:13:00,81.1,74.7,29.91,North,355,0.0,1.0,81,0.00,,,0.00,Wunderground v.1.15,2013-07-24 18:13:00,
2013-07-24 14:18:00,81.1,74.3,29.90,North,355,0.0,1.0,80,0.00,,,0.00,Wunderground v.1.15,2013-07-24 18:18:00,
2013-07-24 14:23:00,81.1,74.7,29.90,North,355,0.0,1.0,81,0.00,,,0.00,Wunderground v.1.15,2013-07-24 18:23:00,
2013-07-24 14:28:00,81.2,75.5,29.90,North,355,0.0,1.0,83,0.00,,,0.00,Wunderground v.1.15,2013-07-24 18:28:00,
2013-07-24 14:33:00,81.4,74.6,29.90,North,355,0.0,2.0,80,0.00,,,0.00,Wunderground v.1.15,2013-07-24 18:33:00,
2013-07-24 14:38:00,81.7,75.3,29.90,North,355,0.0,2.0,81,0.00,,,0.00,Wunderground v.1.15,2013-07-24 18:38:00,
2013-07-24 14:43:00,81.9,75.1,29.90,North,355,0.0,1.0,80,0.00,,,0.00,Wunderground v.1.15,2013-07-24 18:43:00,
2013-07-24 14:48:00,82.1,75.3,29.90,North,355,0.0,1.0,80,0.00,,,0.00,Wunderground v.1.15,2013-07-24 18:48:00,
2013-07-24 14:53:00,82.1,74.9,29.90,NNW,346,0.0,1.0,79,0.00,,,0.00,Wunderground v.1.15,2013-07-24 18:53:00,
2013-07-24 14:58:00,82.3,74.0,29.89,North,5,0.0,1.0,76,0.00,,,0.00,Wunderground v.1.15,2013-07-24 18:58:00,
2013-07-24 15:03:00,82.5,73.4,29.89,North,360,0.0,2.0,74,0.00,,,0.00,Wunderground v.1.15,2013-07-24 19:03:00,
2013-07-24 15:08:00,82.6,73.5,29.89,North,350,0.0,3.0,74,0.00,,,0.00,Wunderground v.1.15,2013-07-24 19:08:00,
2013-07-24 15:13:00,82.6,73.1,29.89,North,11,0.0,1.0,73,0.00,,,0.00,Wunderground v.1.15,2013-07-24 19:13:00,
2013-07-24 15:18:00,82.2,73.9,29.89,North,11,0.0,1.0,76,0.00,,,0.00,Wunderground v.1.15,2013-07-24 19:18:00,
2013-07-24 15:23:00,81.5,73.6,29.89,North,11,0.0,1.0,77,0.00,,,0.00,Wunderground v.1.15,2013-07-24 19:23:00,
2013-07-24 15:28:00,80.9,72.6,29.89,North,11,0.0,1.0,76,0.00,,,0.00,Wunderground v.1.15,2013-07-24 19:28:00,
2013-07-24 15:33:00,80.6,71.9,29.89,North,11,0.0,1.0,75,0.00,,,0.00,Wunderground v.1.15,2013-07-24 19:33:00,
2013-07-24 15:38:00,80.6,72.7,29.89,North,11,0.0,1.0,77,0.00,,,0.00,Wunderground v.1.15,2013-07-24 19:38:00,
2013-07-24 15:43:00,80.7,72.4,29.89,North,11,0.0,3.0,76,0.00,,,0.00,Wunderground v.1.15,2013-07-24 19:43:00,
2013-07-24 15:48:00,80.8,72.1,29.89,North,11,0.0,3.0,75,0.00,,,0.00,Wunderground v.1.15,2013-07-24 19:48:00,
2013-07-24 15:53:00,81.0,72.3,29.88,North,11,0.0,1.0,75,0.00,,,0.00,Wunderground v.1.15,2013-07-24 19:53:00,
2013-07-24 15:58:00,81.1,73.2,29.88,North,11,0.0,1.0,77,0.00,,,0.00,Wunderground v.1.15,2013-07-24 19:58:00,
2013-07-24 16:03:00,81.1,71.2,29.88,North,355,0.0,2.0,72,0.00,,,0.00,Wunderground v.1.15,2013-07-24 20:03:00,
2013-07-24 16:08:00,81.2,72.1,29.88,North,355,0.0,2.0,74,0.00,,,0.00,Wunderground v.1.15,2013-07-24 20:08:00,
2013-07-24 16:13:00,81.2,72.1,29.88,North,360,0.0,3.0,74,0.00,,,0.00,Wunderground v.1.15,2013-07-24 20:13:00,
2013-07-24 16:18:00,81.1,73.2,29.88,North,360,0.0,3.0,77,0.00,,,0.00,Wunderground v.1.15,2013-07-24 20:18:00,
2013-07-24 16:23:00,80.8,72.9,29.88,North,360,0.0,2.0,77,0.00,,,0.00,Wunderground v.1.15,2013-07-24 20:23:00,
2013-07-24 16:28:00,80.5,73.4,29.87,North,360,0.0,2.0,79,0.00,,,0.00,Wunderground v.1.15,2013-07-24 20:28:00,
2013-07-24 16:33:00,80.3,72.0,29.87,North,360,0.0,2.0,76,0.00,,,0.00,Wunderground v.1.15,2013-07-24 20:33:00,
2013-07-24 16:38:00,80.2,71.9,29.87,North,360,0.0,2.0,76,0.00,,,0.00,Wunderground v.1.15,2013-07-24 20:38:00,
2013-07-24 16:43:00,80.1,72.2,29.87,North,360,0.0,1.0,77,0.00,,,0.00,Wunderground v.1.15,2013-07-24 20:43:00,
2013-07-24 16:48:00,79.9,71.7,29.87,North,360,0.0,1.0,76,0.00,,,0.00,Wunderground v.1.15,2013-07-24 20:48:00,
2013-07-24 16:53:00,79.8,71.2,29.88,North,360,0.0,1.0,75,0.00,,,0.00,Wunderground v.1.15,2013-07-24 20:53:00,
2013-07-24 16:58:00,79.6,69.8,29.88,North,360,0.0,1.0,72,0.00,,,0.00,Wunderground v.1.15,2013-07-24 20:58:00,
2013-07-24 17:03:00,79.4,69.6,29.88,North,360,0.0,0.0,72,0.00,,,0.00,Wunderground v.1.15,2013-07-24 21:03:00,
2013-07-24 17:08:00,79.1,70.5,29.88,North,360,0.0,1.0,75,0.00,,,0.00,Wunderground v.1.15,2013-07-24 21:08:00,
2013-07-24 17:13:00,78.7,70.1,29.88,North,360,0.0,1.0,75,0.00,,,0.00,Wunderground v.1.15,2013-07-24 21:13:00,
2013-07-24 17:18:00,78.4,70.2,29.88,North,360,0.0,1.0,76,0.00,,,0.00,Wunderground v.1.15,2013-07-24 21:18:00,
2013-07-24 17:23:00,78.0,69.4,29.88,North,360,0.0,1.0,75,0.00,,,0.00,Wunderground v.1.15,2013-07-24 21:23:00,
2013-07-24 17:28:00,77.8,69.6,29.88,North,360,0.0,1.0,76,0.00,,,0.00,Wunderground v.1.15,2013-07-24 21:28:00,
2013-07-24 17:33:00,77.8,69.6,29.88,North,360,1.0,1.0,76,0.00,,,0.00,Wunderground v.1.15,2013-07-24 21:33:00,
2013-07-24 17:38:00,77.9,70.5,29.88,North,360,0.0,1.0,78,0.00,,,0.00,Wunderground v.1.15,2013-07-24 21:38:00,
2013-07-24 17:43:00,78.0,72.1,29.88,North,360,0.0,0.0,82,0.00,,,0.00,Wunderground v.1.15,2013-07-24 21:43:00,
2013-07-24 17:48:00,78.0,72.1,29.88,North,360,0.0,0.0,82,0.00,,,0.00,Wunderground v.1.15,2013-07-24 21:48:00,
2013-07-24 17:53:00,77.8,72.2,29.88,North,360,0.0,1.0,83,0.00,,,0.00,Wunderground v.1.15,2013-07-24 21:53:00,
2013-07-24 17:58:00,77.7,71.8,29.87,North,360,0.0,1.0,82,0.00,,,0.00,Wunderground v.1.15,2013-07-24 21:58:00,
2013-07-24 18:03:00,77.6,70.9,29.88,North,360,0.0,1.0,80,0.00,,,0.00,Wunderground v.1.15,2013-07-24 22:03:00,
2013-07-24 18:08:00,77.6,69.4,29.87,North,360,0.0,2.0,76,0.00,,,0.00,Wunderground v.1.15,2013-07-24 22:08:00,
2013-07-24 18:13:00,77.6,69.8,29.87,North,360,0.0,1.0,77,0.00,,,0.00,Wunderground v.1.15,2013-07-24 22:13:00,
2013-07-24 18:18:00,77.5,69.3,29.87,North,360,0.0,1.0,76,0.00,,,0.00,Wunderground v.1.15,2013-07-24 22:18:00,
2013-07-24 18:23:00,77.4,69.6,29.87,North,360,0.0,0.0,77,0.00,,,0.00,Wunderground v.1.15,2013-07-24 22:23:00,
2013-07-24 18:28:00,77.3,70.3,29.88,North,360,0.0,0.0,79,0.00,,,0.00,Wunderground v.1.15,2013-07-24 22:28:00,
2013-07-24 18:33:00,77.0,70.0,29.88,North,360,0.0,0.0,79,0.00,,,0.00,Wunderground v.1.15,2013-07-24 22:33:00,
2013-07-24 18:38:00,76.7,70.1,29.88,North,360,0.0,0.0,80,0.00,,,0.00,Wunderground v.1.15,2013-07-24 22:38:00,
2013-07-24 18:43:00,76.5,69.9,29.88,North,360,0.0,0.0,80,0.00,,,0.00,Wunderground v.1.15,2013-07-24 22:43:00,
2013-07-24 18:48:00,76.3,69.7,29.88,North,360,0.0,0.0,80,0.00,,,0.00,Wunderground v.1.15,2013-07-24 22:48:00,
2013-07-24 18:53:00,76.1,69.8,29.87,North,360,0.0,0.0,81,0.00,,,0.00,Wunderground v.1.15,2013-07-24 22:53:00,
2013-07-24 18:58:00,75.9,70.0,29.88,North,360,0.0,0.0,82,0.00,,,0.00,Wunderground v.1.15,2013-07-24 22:58:00,
2013-07-24 19:03:00,75.8,69.6,29.88,North,360,0.0,1.0,81,0.00,,,0.00,Wunderground v.1.15,2013-07-24 23:03:00,
2013-07-24 19:09:00,75.7,70.5,29.88,North,360,0.0,1.0,84,0.00,,,0.00,Wunderground v.1.15,2013-07-24 23:09:00,
2013-07-24 19:13:00,75.6,70.4,29.89,North,360,1.0,2.0,84,0.00,,,0.00,Wunderground v.1.15,2013-07-24 23:13:00,
2013-07-24 19:19:00,75.5,70.3,29.89,North,360,0.0,2.0,84,0.00,,,0.00,Wunderground v.1.15,2013-07-24 23:19:00,
2013-07-24 19:24:00,75.4,70.2,29.89,North,360,0.0,1.0,84,0.00,,,0.00,Wunderground v.1.15,2013-07-24 23:24:00,
2013-07-24 19:29:00,75.3,70.1,29.89,North,360,0.0,1.0,84,0.00,,,0.00,Wunderground v.1.15,2013-07-24 23:29:00,
2013-07-24 19:33:00,75.2,70.0,29.90,North,360,0.0,1.0,84,0.00,,,0.00,Wunderground v.1.15,2013-07-24 23:33:00,
2013-07-24 19:38:00,75.1,69.6,29.90,North,360,0.0,1.0,83,0.00,,,0.00,Wunderground v.1.15,2013-07-24 23:38:00,
2013-07-24 19:43:00,75.1,69.6,29.90,North,360,0.0,0.0,83,0.00,,,0.00,Wunderground v.1.15,2013-07-24 23:43:00,
2013-07-24 19:48:00,75.0,69.8,29.91,North,360,0.0,0.0,84,0.00,,,0.00,Wunderground v.1.15,2013-07-24 23:48:00,
2013-07-24 19:53:00,74.9,70.1,29.91,North,360,0.0,0.0,85,0.00,,,0.00,Wunderground v.1.15,2013-07-24 23:53:00,
2013-07-24 19:58:00,74.7,69.9,29.91,North,360,0.0,0.0,85,0.00,,,0.00,Wunderground v.1.15,2013-07-24 23:58:00,
2013-07-24 20:03:00,74.6,70.1,29.92,North,360,0.0,1.0,86,0.00,,,0.00,Wunderground v.1.15,2013-07-25 00:03:00,
2013-07-24 20:08:00,74.5,70.0,29.92,North,360,0.0,1.0,86,0.00,,,0.00,Wunderground v.1.15,2013-07-25 00:08:00,
2013-07-24 20:13:00,74.3,69.8,29.93,North,360,0.0,0.0,86,0.00,,,0.00,Wunderground v.1.15,2013-07-25 00:13:00,
2013-07-24 20:18:00,74.2,70.1,29.93,North,360,0.0,1.0,87,0.00,,,0.00,Wunderground v.1.15,2013-07-25 00:18:00,
2013-07-24 20:23:00,74.0,69.9,29.93,North,360,0.0,1.0,87,0.00,,,0.00,Wunderground v.1.15,2013-07-25 00:23:00,
2013-07-24 20:28:00,73.9,70.1,29.93,North,360,0.0,1.0,88,0.00,,,0.00,Wunderground v.1.15,2013-07-25 00:28:00,
2013-07-24 20:34:00,73.7,70.3,29.92,North,360,0.0,1.0,89,0.00,,,0.00,Wunderground v.1.15,2013-07-25 00:34:00,
2013-07-24 20:38:00,73.5,70.4,29.92,North,360,0.0,1.0,90,0.00,,,0.00,Wunderground v.1.15,2013-07-25 00:38:00,
2013-07-24 20:43:00,73.3,70.2,29.93,North,360,0.0,1.0,90,0.00,,,0.00,Wunderground v.1.15,2013-07-25 00:43:00,
2013-07-24 20:48:00,73.2,70.1,29.93,North,360,0.0,1.0,90,0.00,,,0.00,Wunderground v.1.15,2013-07-25 00:48:00,
2013-07-24 20:53:00,73.0,69.9,29.93,North,360,0.0,1.0,90,0.00,,,0.00,Wunderground v.1.15,2013-07-25 00:53:00,
2013-07-24 20:58:00,72.9,69.8,29.92,North,360,0.0,1.0,90,0.00,,,0.00,Wunderground v.1.15,2013-07-25 00:58:00,
2013-07-24 21:03:00,72.9,69.8,29.92,North,360,0.0,1.0,90,0.00,,,0.00,Wunderground v.1.15,2013-07-25 01:03:00,
2013-07-24 21:08:00,72.8,69.7,29.92,North,360,0.0,1.0,90,0.00,,,0.00,Wunderground v.1.15,2013-07-25 01:08:00,
2013-07-24 21:13:00,72.7,69.6,29.92,North,360,0.0,1.0,90,0.00,,,0.00,Wunderground v.1.15,2013-07-25 01:13:00,
2013-07-24 21:19:00,72.6,69.5,29.92,North,360,0.0,1.0,90,0.00,,,0.00,Wunderground v.1.15,2013-07-25 01:19:00,
2013-07-24 21:24:00,72.5,69.7,29.92,North,360,0.0,0.0,91,0.00,,,0.00,Wunderground v.1.15,2013-07-25 01:24:00,
2013-07-24 21:29:00,72.3,69.8,29.92,North,360,0.0,0.0,92,0.00,,,0.00,Wunderground v.1.15,2013-07-25 01:29:00,
2013-07-24 21:34:00,72.0,69.9,29.93,North,360,0.0,1.0,93,0.00,,,0.00,Wunderground v.1.15,2013-07-25 01:34:00,
2013-07-24 21:39:00,71.7,69.3,29.93,North,360,0.0,1.0,92,0.00,,,0.00,Wunderground v.1.15,2013-07-25 01:39:00,
2013-07-24 21:44:00,71.4,69.0,29.93,North,360,0.0,0.0,92,0.00,,,0.00,Wunderground v.1.15,2013-07-25 01:44:00,
2013-07-24 21:49:00,71.2,69.1,29.93,North,360,0.0,0.0,93,0.00,,,0.00,Wunderground v.1.15,2013-07-25 01:49:00,
2013-07-24 21:54:00,71.1,68.7,29.93,North,360,0.0,0.0,92,0.00,,,0.00,Wunderground v.1.15,2013-07-25 01:54:00,
2013-07-24 21:59:00,70.9,68.5,29.93,North,360,0.0,0.0,92,0.00,,,0.00,Wunderground v.1.15,2013-07-25 01:59:00,
2013-07-24 22:04:00,70.9,68.8,29.93,North,360,0.0,0.0,93,0.00,,,0.00,Wunderground v.1.15,2013-07-25 02:04:00,
2013-07-24 22:09:00,70.8,69.0,29.94,North,360,0.0,0.0,94,0.00,,,0.00,Wunderground v.1.15,2013-07-25 02:09:00,
2013-07-24 22:14:00,70.7,68.6,29.94,North,360,0.0,0.0,93,0.00,,,0.00,Wunderground v.1.15,2013-07-25 02:14:00,
2013-07-24 22:19:00,70.6,68.5,29.94,North,360,0.0,1.0,93,0.00,,,0.00,Wunderground v.1.15,2013-07-25 02:19:00,
2013-07-24 22:24:00,70.5,68.4,29.94,North,360,0.0,0.0,93,0.00,,,0.00,Wunderground v.1.15,2013-07-25 02:24:00,
2013-07-24 22:29:00,70.4,68.3,29.94,North,360,0.0,0.0,93,0.00,,,0.00,Wunderground v.1.15,2013-07-25 02:29:00,
2013-07-24 22:34:00,70.3,68.2,29.94,North,360,0.0,0.0,93,0.00,,,0.00,Wunderground v.1.15,2013-07-25 02:34:00,
2013-07-24 22:39:00,70.2,68.1,29.94,North,360,0.0,0.0,93,0.00,,,0.00,Wunderground v.1.15,2013-07-25 02:39:00,
2013-07-24 22:44:00,70.1,68.0,29.94,North,360,0.0,0.0,93,0.00,,,0.00,Wunderground v.1.15,2013-07-25 02:44:00,
2013-07-24 22:49:00,70.1,68.0,29.94,North,360,0.0,0.0,93,0.00,,,0.00,Wunderground v.1.15,2013-07-25 02:49:00,
2013-07-24 22:54:00,70.1,68.0,29.95,North,360,0.0,0.0,93,0.00,,,0.00,Wunderground v.1.15,2013-07-25 02:54:00,
2013-07-24 22:59:00,70.1,68.3,29.95,North,360,0.0,1.0,94,0.00,,,0.00,Wunderground v.1.15,2013-07-25 02:59:00,
2013-07-24 23:04:00,70.1,68.3,29.95,North,360,0.0,0.0,94,0.00,,,0.00,Wunderground v.1.15,2013-07-25 03:04:00,
2013-07-24 23:09:00,70.1,68.3,29.95,North,360,0.0,0.0,94,0.00,,,0.00,Wunderground v.1.15,2013-07-25 03:09:00,
2013-07-24 23:15:00,70.0,68.5,29.95,North,360,0.0,0.0,95,0.00,,,0.00,Wunderground v.1.15,2013-07-25 03:15:00,
2013-07-24 23:20:00,69.9,68.4,29.95,North,360,0.0,0.0,95,0.00,,,0.00,Wunderground v.1.15,2013-07-25 03:20:00,
2013-07-24 23:25:00,69.7,68.2,29.95,North,360,0.0,0.0,95,0.00,,,0.00,Wunderground v.1.15,2013-07-25 03:25:00,
2013-07-24 23:30:00,69.6,68.4,29.95,North,360,0.0,0.0,96,0.00,,,0.00,Wunderground v.1.15,2013-07-25 03:30:00,
2013-07-24 23:35:00,69.5,68.3,29.95,North,360,0.0,0.0,96,0.00,,,0.00,Wunderground v.1.15,2013-07-25 03:35:00,
2013-07-24 23:40:00,69.3,68.4,29.95,North,360,0.0,0.0,97,0.00,,,0.00,Wunderground v.1.15,2013-07-25 03:40:00,
2013-07-24 23:45:00,69.2,68.0,29.95,North,360,0.0,0.0,96,0.00,,,0.00,Wunderground v.1.15,2013-07-25 03:45:00,
2013-07-24 23:50:00,69.1,67.9,29.95,North,360,0.0,0.0,96,0.00,,,0.00,Wunderground v.1.15,2013-07-25 03:50:00,
2013-07-24 23:55:00,68.9,67.7,29.95,North,360,0.0,0.0,96,0.00,,,0.00,Wunderground v.1.15,2013-07-25 03:55:00,